Weather in Stepanovo

Russia / Kostroma Oblast     58°27′25″N   42°30′21″E
temp.,
°C
wind,
m/s
gust,
m/s
humid.,
%
clouds,
%
prec.,
mm/h
press.,
hPa
HPBL,
m
12 april, mon
mon1200:00+3w009954 0.0 103512
03:00+1e119891 0.0 103615
06:00+3ese259551 0.0 103790
09:00+7se368380 0.0 1038377
12:00+11sse357122 0.0 1037771
15:00+13sse3465100 0.0 1036947
18:00+10se3879100 0.0 1035295
21:00+7se41290100 0.0 1035427
13 april, tue
tue1300:00+6se31391100 0.0 1034444
03:00+5se41195100 0.0 1032394
06:00+5sse31097100 0.0 1031349
09:00+8s4789100 0.0 1030368
12:00+14s4868100 0.0 1028583
15:00+16s496395 0.0 1027854
18:00+13s3971100 0.0 1026269
21:00+10s31279100 0.0 1026240
14 april, wed
wed1400:00+8s3108299 0.0 1026190
03:00+6s268252 0.0 102586
06:00+6s2582100 0.0 102592
09:00+12ssw37615 0.0 1024326
12:00+17ssw48455 0.0 1023857
15:00+18ssw57395 0.0 10221533
18:00+15s385057 0.0 1021241
21:00+10s31071100 0.0 1021179
15 april, thu
thu1500:00+9s267947 0.0 1020107
03:00+7ssw228295 0.0 102023
06:00+7sw1181100 0.0 102010
09:00+11nw116494 0.0 1020244
12:00+16w1249100 0.0 1019829
15:00+17nw124695 0.0 10181425
18:00+11nne4877100 0.0 1019430
21:00+6nne4886100 0.0 1020357
16 april, fri
fri1600:00+5nne3890100 0.0 1020382
03:00+5nne4891100 0.1 1020458
06:00+4nne41096100 1.9 1021562
09:00+5nne5867100 2.1 1022926
12:00+8nne58441 0.0 10231430
15:00+9nne69385 0.0 10241770
18:00+8n69465 0.0 10251495
21:00+2nne511665 0.0 1027854